#timestamp,LO_Frequency,Hit,StdDev 
1616623215.9,286047051.1,N
1616623235.7,286047046.6,N
1616623255.5,286047050.7,N
1616623275.4,286047057.1,N
1616623295.2,286047054.7,N
1616623315.0,286047061.4,N
1616623316.0,286047061.4,Y
1616623335.8,286047020.3,P
1616623355.6,286047035.1,P
1616623375.5,286047020.6,P
1616623395.3,286047032.9,Y
1616623415.1,286046993.4,P
1616623435.9,286047015.9,N
1616623455.7,286047011.3,N
1616623475.6,286047012.7,N
1616623495.4,286047011.1,N
1616623515.2,286047011.4,N
1616623535.1,286047015.6,N
1616623536.0,286047015.6,N
1616623555.8,286047017.9,N
1616623575.6,286047026.6,Y
1616623595.5,286046993.5,P
1616623615.3,286047003.3,N
1616623635.2,286046995.9,N
1616623655.9,286047004.7,N
1616623675.7,286046998.3,N
1616623695.6,286047014.0,N
1616623715.4,286047006.9,N
1616623735.3,286047015.1,N
1616623755.1,286047012.8,N
1616623756.0,286047012.8,N
1616623775.8,286047003.7,N
1616623795.7,286047018.7,N
1616623815.5,286047007.9,N
1616623835.3,286047021.6,N
1616623855.2,286047011.5,N
1616623875.0,286047014.9,N
1616623875.9,286047014.9,N
1616623895.8,286047024.5,Y
1616623915.6,286047011.8,P
1616623935.4,286047023.5,P
1616623955.3,286047012.6,N
1616623975.1,286047023.6,Y
1616623995.9,286046995.4,P
1616624015.7,286047009.0,N
1616624035.5,286047003.8,N
1616624055.4,286047003.7,N
1616624075.2,286047013.0,N
1616624095.0,286047003.2,N
1616624095.9,286047003.2,N
1616624115.8,286047013.5,N
1616624135.6,286047020.7,Y
1616624155.5,286047008.7,P
1616624175.3,286047004.2,P
1616624195.1,286047015.0,P
1616624245.9,286047006.9,E
1616624255.8,286047004.4,N
1616624275.7,286047008.5,P
1616624295.5,286047000.6,N
1616624345.4,286046998.8,E
1616624355.3,286047015.7,N
1616624375.1,286047010.1,P
1616624395.9,286047020.8,P
1616624415.7,286047014.3,Y
1616624435.5,286047005.2,P
1616624455.4,286046998.1,N
1616624475.2,286047004.3,N
1616624495.1,286047005.2,N
1616624496.0,286047005.2,N
1616624515.8,286047010.4,N
1616624535.6,286047002.9,N
1616624555.5,286047004.2,N
1616624575.3,286047023.1,Y
1616624595.2,286047022.7,P
1616624615.9,286047022.5,N
1616624635.7,286047031.8,P
1616624655.6,286047037.5,Y
1616624675.4,286047013.4,P
1616624695.2,286047015.5,P
1616624715.1,286047009.6,P
1616624716.0,286047009.6,N
1616624735.8,286047016.2,Y
1616624755.7,286047004.2,P
1616624775.5,286046994.2,N
1616624795.3,286046998.6,N
1616624815.2,286047008.1,N
1616624835.0,286046987.3,N
1616624835.9,286046987.3,N
1616624855.8,286046973.0,N
1616624875.6,286046963.0,N
1616624895.4,286046956.4,N
1616624915.3,286046951.1,N
1616624935.1,286046947.9,N
1616624955.8,286046945.2,N
1616624975.7,286046944.7,N
1616624995.5,286046945.2,N
1616625015.4,286046940.7,N
1616625035.2,286046939.9,N
1616625055.0,286046938.4,N
1616625055.9,286046938.4,N
1616625075.8,286046940.4,N
1616625095.6,286046936.4,N
1616625115.5,286046937.8,N
1616625135.3,286046941.4,N
1616625155.1,286046940.6,N
1616625175.9,286046941.4,N
1616625195.7,286046942.0,N
1616625215.5,286046943.4,N
1616625235.4,286046942.5,N
1616625255.2,286046942.4,N
1616625275.1,286046945.1,N
1616625276.0,286046945.1,N
1616625295.8,286046941.3,N
1616625315.6,286046938.9,Y
1616625335.5,286046988.4,P
1616625355.3,286046987.3,N
1616625375.2,286046987.9,N
1616625395.9,286046987.0,N
1616625415.7,286046988.4,N
1616625435.6,286046982.1,N
1616625455.4,286046981.7,N
1616625475.2,286046981.3,N
1616625495.1,286046979.5,N
1616625496.0,286046979.5,N
1616625515.8,286046977.5,N
1616625535.7,286046978.3,N
1616625555.5,286046978.5,N
1616625575.3,286046982.2,N
1616625595.2,286046981.4,N
1616625615.0,286046977.3,N
1616625615.9,286046977.3,N
1616625635.8,286046977.6,N
1616625655.6,286046979.8,N
1616625675.4,286046980.8,N
1616625695.3,286046984.7,N
1616625715.1,286046987.5,N
1616625716.0,286046987.5,N
1616625735.8,286046988.7,N
1616625755.7,286046992.8,N
1616625775.5,286046991.7,N
1616625795.3,286046992.5,N
1616625815.2,286046992.5,N
1616625835.0,286046992.8,N
1616625835.9,286046992.8,N
1616625855.8,286046990.5,N
1616625875.6,286046987.2,N
1616625895.4,286046986.6,N
1616625915.3,286046986.9,N
1616625935.1,286046987.3,N
1616625955.8,286046985.6,N
1616625975.7,286046989.0,N
1616625995.5,286046989.2,N
1616626015.4,286046988.8,N
1616626035.2,286046996.4,N
1616626055.0,286046995.6,N
1616626055.9,286046995.6,N
1616626075.8,286046993.3,N
1616626095.6,286046994.1,N
1616626115.5,286046993.6,N
1616626135.3,286046995.0,N
1616626155.1,286046996.1,N
1616626175.9,286046995.8,N
1616626195.7,286046993.6,N
1616626215.5,286046991.8,N
1616626235.4,286046992.6,N
1616626255.2,286046994.7,N
1616626275.1,286046996.1,N
1616626276.0,286046996.1,N
1616626295.8,286046996.9,N
1616626315.6,286047000.6,N
1616626335.5,286047001.4,N
1616626355.3,286047009.2,N
1616626375.1,286047010.5,N
1616626395.9,286047011.8,N
1616626415.7,286047012.3,N
1616626435.6,286047009.7,N
1616626455.4,286047009.3,N
1616626475.2,286047011.2,N
1616626495.1,286047013.6,N
1616626496.0,286047013.6,N
1616626515.8,286047011.0,N
1616626535.6,286047014.3,N
1616626555.5,286047018.5,N
1616626575.3,286047017.2,N
1616626595.2,286047014.0,N
1616626615.9,286047012.8,N
1616626635.7,286047014.7,N
1616626655.6,286047015.5,N
1616626675.4,286047014.0,N
1616626695.2,286047013.0,N
1616626715.1,286047014.0,N
1616626716.0,286047014.0,N
1616626735.8,286047013.9,N
1616626755.7,286047012.8,N
1616626775.5,286047012.8,N
1616626795.3,286047012.6,N
